Showing default

ALOS-4, 60182

Orbit data source: Space-Track

ALOS-4, 60182 is a payload satellite owned by JAXA (JP) in SSO that was launched on Mon, 01 Jul 2024 UTC via a H3-22S launch vehicle from the Tanegashima Space Center (TNSTA). Payload-class satellites include a variety of spacecraft equipped with specific instruments for various scientific and technological missions. These include communications satellites like Starlink; space stations such as the ISS; scientific satellites like the Hubble; Earth observation satellites from companies like Planet Labs, Umbra, and HawkEye 360; GPS; miniature CubeSats for education and research; and military/defense satellites.

Loading next visibility...
Identifier
60182, 2024-123A
Orbit
SSO
Country
Flag of JPJP / JPN
Related business
Manufacturer
MELCO
Mission
Operational Civil Imaging
Bus & Motor
ALOS, AOCS
Mass
2,900 kg wet, ~2,500 kg dry
Launch date (UTC)
2024-07-01 (1 year ago)
Launch vehicle
H3-22S
Launch site
Tanegashima Space Center (TNSTA)
Object type
Payload
Rocket body
Debris
Shape & HBR
Box + 2 Pan, 8.3 m
Radar Cross Section
36.926 m², Large (>1 m²)

Expand to show TLE details & history
Last TLE update: 6 hours ago

TLE from 6 hours ago
0 ALOS-4
1 60182U 24123A   25261.27443409  .00001805  00000-0  24849-3 0  9992
2 60182  97.9221 357.3405 0001501  96.8258 263.3124 14.79472455 65674
Epoch: 2025-09-18T06:35Z
TLE epoch observation values (Epoch: 2025-09-18T06:35:11.105Z)
Latitude
-0.00006°
Longitude
-98.89414°
Altitude
634.133 km
Speed
7.541 km/s
True Right ascension
23h 49m 21s
True Declination
0° 00' 00"
Sunlit
Object was in full shadow at epoch
Visualization orbit readout
Latitude
Unknown
Longitude
Unknown
Altitude
Unknown
Speed
Unknown
Apparent Right ascension
Unknown
Apparent Declination
Unknown
Sunlit
N/A
Visualization observer readout
Local Sidereal Time
05:28:40
Azimuth
Unknown
Elevation
Unknown
Doppler factor
Unknown
Orbital elements
Apogee altitude
629.084 km
Perigee altitude
626.981 km
Semi-major axis
7,006.169 km
Eccentricity
0.00015
Inclination
97.9221°
RAAN
357.3405°
Arg. of periapsis
96.8258°
True anomaly
263.29532°
Mean anomaly
263.3124°
Eccentric anomaly
263.30386°
Mean motion
3.70103 °/min
Orbital period
97.27 mins
BSTAR
0.00024849
Loading maneuver chart data...
Computing Atmospheric mass density...
Loading historical data...
Loading historical data...
Loading historical data...
Loading historical data...
Loading historical data...
Loading historical data...
Loading historical data...
Other satellites on launch #123 in the year 2024 (2024-07-01 UTC)

Documentation

Showing up to 5 results
|